Weather in Yermakovo

Russia / Yaroslavl Oblast     58°36′46″N   38°41′39″E
temp.,
°C
wind,
m/s
gust,
m/s
humid.,
%
clouds,
%
prec.,
mm/h
press.,
hPa
HPBL,
m
25 october, mon
mon2500:00+1nnw79795 0.0 1023741
03:00+1nnw667811 0.1 1024678
06:00+1nw667774 0.0 1025786
09:00+1w6666100 0.0 1025722
12:00+1sw8871100 0.0 1025696
15:00+1ssw111496100 0.4 1022618
18:00+3sw131796100 2.4 1020807
21:00+4wsw121680100 3.1 1018862
26 october, tue
tue2600:00+4wsw121485100 0.4 1018730
03:00+4wsw121484100 0.5 1017560
06:00+4wsw11128597 0.0 1016502
09:00+3wsw9108499 0.0 1017493
12:00+4wsw898092 0.0 1016510
15:00+5wsw81075100 0.0 1015623
18:00+5sw81079100 0.0 1015602
21:00+4wsw81081100 0.0 1015498
27 october, wed
wed2700:00+4wsw8983100 0.0 1014429
03:00+4wsw8984100 0.0 1014406
06:00+3sw9985100 0.0 1013385
09:00+3sw91185100 0.0 1011404
12:00+4sw101384100 0.1 1010526
15:00+5wsw101494100 2.6 1008732
18:00+6w111690100 2.1 1008664
21:00+6w10158893 3.4 1009595
28 october, thu
thu2800:00+6w111688100 0.1 1010684
03:00+6w101486100 0.2 1011501
06:00+6w81289100 0.0 1012343
09:00+5wsw6891100 0.1 1012212
12:00+5wsw4693100 0.0 1013166
15:00+5ssw1197100 1.3 101356
18:00+5ne2395100 1.4 101448
21:00+5ne6887100 2.0 1016406
29 october, fri
fri2900:00+3ne688290 0.1 1019472
03:000ene7884100 0.1 1022438
06:00−1ene7878100 0.0 1025408
09:00−1e6771100 0.0 1027440
12:00+1se6662100 0.0 1028531
15:00+2se5657100 0.0 1028545
18:00+2sse786180 0.0 1028482
21:00+2sse81072100 0.1 1028430